Temperature
20 19 19 18 18 18 17 17 17 17 16 16 16 16 16 16 16 16 15 15 15 15 15 15 15 15 15 15 15 15 15 15 15 15 15 15 15 15 15 15 15 14 14
20 19 19 18 18 18 17 17 17 17 16 16 16 16 16 16 16 15 15 15 15 15 15 15 15 15 15 15 15 15 15 15 15 15 15 15 15 14 14 15 14 14 14
20 19 19 18 18 17 17 17 17 17 16 16 16 16 16 16 16 15 15 15 15 15 15 15 15 15 15 15 15 15 15 15 15 15 15 15 15 14 14 14 14 14 14
21 20 19 18 18 18 17 17 17 17 16 16 16 16 16 16 16 15 15 15 15 15 15 15 15 15 15 15 15 15 15 15 15 15 15 15 15 15 14 14 14 14 14
21 20 19 19 18 18 17 17 17 17 16 16 16 16 16 16 15 15 15 15 15 15 15 15 15 15 15 15 15 15 15 15 15 15 15 15 15 15 15 14 14 14 14
21 20 19 19 18 18 17 17 17 17 16 16 16 16 16 16 16 15 15 15 15 15 15 15 15 15 15 15 15 15 15 15 15 15 15 15 15 15 15 14 14 14 14
21 20 19 19 18 18 17 17 17 17 16 16 16 16 16 16 16 16 15 15 15 15 15 15 15 15 15 15 15 15 15 15 15 15 15 15 15 15 15 15 14 14 14
21 20 20 19 18 18 17 17 17 16 16 16 16 16 16 16 16 16 16 15 15 15 15 15 15 15 15 15 15 15 15 15 15 15 15 15 15 15 15 14 14 14 14
21 21 20 19 18 18 17 17 17 17 16 16 16 16 16 16 16 16 16 15 15 15 15 15 15 15 15 15 15 15 15 15 15 15 15 15 15 14 14 14 14 14 14
21 20 20 19 18 18 17 17 17 17 17 16 16 16 16 16 16 16 16 16 15 15 15 15 15 15 15 15 15 15 15 15 15 15 15 15 14 14 14 14 14 14 14
21 20 20 19 18 18 18 17 17 17 17 16 16 16 16 16 16 16 16 16 15 15 15 15 15 15 15 15 15 15 15 15 15 14 14 14 14 14 14 14 14 14 14
21 20 20 19 18 18 18 18 17 17 17 16 16 16 16 16 16 16 16 15 15 15 15 15 15 15 15 15 15 15 15 14 14 14 14 14 14 14 14 14 14 14 13
21 20 19 19 19 18 18 18 17 17 17 17 16 16 16 16 16 16 16 16 15 15 15 15 15 15 15 15 15 15 15 14 14 14 14 14 14 14 14 14 14 13 13
20 20 19 19 18 18 18 18 18 17 17 17 16 16 16 16 16 16 16 15 15 15 15 15 15 15 15 15 15 14 14 14 14 14 14 14 14 14 14 14 13 13 13
20 19 19 18 18 18 18 18 18 17 17 17 16 16 16 16 16 16 15 15 15 15 15 15 15 15 15 15 15 14 14 14 14 14 14 14 14 14 14 13 13 13 13
20 19 19 19 18 18 18 18 18 17 17 17 16 16 16 16 16 15 15 15 15 15 15 15 15 15 15 15 15 14 14 14 14 14 14 14 14 13 13 13 13 13 13
20 19 19 19 18 18 18 18 18 17 17 17 16 16 16 16 16 15 15 15 15 15 15 15 15 15 15 15 14 14 14 14 14 14 13 13 13 13 13 13 13 13 13
19 19 19 18 18 18 18 18 17 17 17 17 16 16 16 16 16 15 15 15 15 15 15 15 15 15 15 14 14 14 14 14 13 13 13 13 13 13 13 13 13 13 12
19 19 18 18 18 18 18 18 17 17 17 16 16 16 16 16 15 15 15 15 15 15 15 15 15 15 14 14 14 14 14 13 13 13 13 13 13 13 12 12 12 12 12
18 18 18 18 18 18 18 17 17 17 17 16 16 16 16 15 15 15 15 15 14 14 14 14 14 14 14 14 14 14 14 13 13 13 13 13 13 12 12 12 12 12 12
18 18 17 17 17 17 17 17 17 17 16 16 16 15 15 15 15 15 15 14 14 14 14 14 14 14 14 14 13 13 13 13 13 13 13 13 12 12 12 12 12 12 11
17 17 17 17 17 17 16 16 16 16 16 16 15 15 15 15 15 14 14 14 14 14 14 14 14 13 13 13 13 13 13 12 12 12 12 12 12 12 12 12 11 11 11
17 16 16 16 16 16 16 16 16 16 16 15 15 15 14 14 14 14 14 14 14 13 13 13 13 13 13 13 13 13 12 12 12 12 12 12 12 12 11 11 11 11 11
16 16 15 15 15 15 15 15 15 15 15 15 15 14 14 14 14 14 14 14 13 13 13 13 13 13 13 13 13 13 12 12 12 12 12 11 11 11 11 11 10 10 10
15 15 15 15 15 15 15 15 15 15 15 14 14 14 14 14 13 13 13 13 13 13 13 13 12 12 12 12 12 12 12 12 12 11 11 11 11 11 10 10 10 10 9
15 15 14 14 14 14 14 14 14 14 14 14 14 14 13 13 13 13 13 13 13 12 12 12 12 12 12 12 12 12 11 11 11 11 11 10 10 10 10 9 9 9 9
Wind_Speed
7 7 7 6 6 5 6 7 5 5 4 2 2 2 2 2 3 2 4 4 4 5 5 3 4 4 3 3 3 3 3 2 2 3 3 3 4 4 4 4 5 7 8
8 7 7 6 5 5 5 6 5 5 5 2 1 2 2 2 2 2 4 4 4 5 4 3 3 3 3 3 3 3 2 1 1 1 1 2 2 3 3 3 5 5 6
8 9 8 7 6 6 5 5 5 5 5 4 2 2 2 1 2 2 2 2 4 5 5 3 3 3 3 3 2 2 3 1 1 2 2 2 1 1 2 4 4 4 4
7 8 8 8 7 6 5 4 4 5 5 4 2 2 2 2 2 2 1 1 3 4 4 3 2 3 3 3 2 3 2 1 1 2 2 2 2 2 1 2 3 4 5
7 8 9 9 8 7 5 4 4 4 4 3 2 1 1 2 2 2 2 2 3 3 3 2 2 3 2 3 4 4 3 2 2 1 1 2 2 2 2 2 1 2 3
8 8 9 8 7 7 5 4 3 4 4 3 3 2 2 2 3 2 2 2 2 2 3 2 3 3 3 4 3 3 3 3 3 2 3 2 2 2 2 2 2 2 1
8 8 9 8 7 7 6 5 4 4 4 4 3 3 3 2 2 3 2 2 1 2 2 2 2 3 3 3 3 2 2 3 3 3 3 3 3 2 2 2 2 2 1
8 8 9 8 8 8 7 6 5 4 4 4 3 2 3 2 2 2 2 2 2 2 3 3 2 3 3 3 3 2 2 3 3 4 3 3 3 2 2 2 2 2 1
7 8 9 9 8 8 7 6 5 5 5 4 4 3 3 2 2 2 1 2 3 3 4 4 3 3 3 3 3 2 3 3 3 3 3 2 1 2 2 2 2 2 1
7 8 8 8 8 7 7 6 5 5 4 4 3 3 3 2 3 2 2 2 3 3 3 4 3 3 3 3 3 3 2 3 2 2 2 2 1 2 1 1 1 1 2
6 7 7 7 7 7 7 6 5 5 4 4 3 3 3 2 2 3 3 3 3 3 3 4 3 3 3 3 3 2 1 2 1 1 2 2 2 2 1 2 2 2 2
6 7 7 7 6 6 7 7 7 6 5 5 4 4 4 3 3 3 3 3 3 4 3 4 4 3 3 3 3 2 1 1 1 1 2 2 2 2 1 1 1 1 1
6 6 6 6 6 6 6 6 7 7 6 5 5 5 4 4 3 3 3 3 3 3 3 4 4 3 3 3 3 3 2 1 1 1 1 1 2 2 1 1 1 1 1
6 6 5 4 5 5 5 5 6 6 6 6 5 4 4 4 4 3 2 2 2 3 3 3 3 4 3 2 2 2 2 1 1 1 1 2 2 2 1 1 1 1 1
5 6 5 5 5 4 4 5 5 5 6 6 5 4 4 4 4 3 2 2 1 2 3 2 3 3 3 2 2 1 1 1 1 1 1 2 4 5 3 2 1 1 1
4 5 5 5 5 5 5 5 5 6 6 6 6 5 4 4 4 4 3 2 2 2 3 2 3 3 2 3 4 1 0 0 1 1 1 2 3 3 3 3 2 2 1
3 3 4 3 4 4 5 5 5 5 6 6 6 6 5 5 5 4 3 3 3 2 2 3 3 3 3 4 3 2 1 1 0 1 1 0 2 3 3 2 1 0 1
3 2 2 4 3 4 3 4 4 5 6 6 6 6 6 5 5 4 4 4 3 3 2 3 3 4 3 4 3 1 0 1 0 1 2 1 1 1 1 1 1 0 1
1 1 0 2 2 2 3 4 4 5 5 5 6 6 6 6 5 5 4 4 3 3 3 3 4 4 4 5 4 2 0 0 1 1 1 2 2 3 4 1 0 0 1
2 1 1 1 2 1 3 3 4 5 5 4 5 5 6 6 6 5 4 3 3 3 3 3 3 4 5 6 5 3 1 1 0 0 1 2 2 2 2 1 0 1 1
2 2 2 2 1 1 2 3 3 4 4 4 4 4 5 5 6 5 4 3 3 3 3 3 3 3 4 6 6 4 1 1 1 1 1 1 1 0 1 1 1 3 2
3 3 2 2 1 1 2 3 2 2 4 5 4 4 4 4 4 5 4 4 3 3 3 3 2 2 3 5 5 5 3 2 1 0 1 1 1 0 1 0 1 2 2
2 2 1 1 1 1 2 2 2 2 3 4 4 4 4 4 4 4 4 3 3 2 2 2 2 2 2 3 6 6 4 2 1 1 1 1 1 1 0 1 2 1 1
2 2 1 1 1 1 1 1 2 2 4 4 4 4 4 4 4 3 3 3 3 3 3 3 3 2 2 3 3 3 2 1 1 0 0 1 1 1 1 1 2 2 1
2 2 1 1 0 0 1 1 1 1 3 4 4 4 4 4 4 3 2 3 2 3 3 2 3 3 3 3 4 4 3 2 2 2 1 1 0 1 2 2 2 2 1
3 3 2 1 1 0 1 1 1 2 2 3 3 2 3 4 4 4 3 2 3 3 3 3 3 2 3 5 6 5 4 3 4 3 1 2 2 2 2 2 2 2 2
Wind_Direction
155 151 145 143 138 142 133 129 141 133 111 83 83 87 76 60 56 47 51 43 52 68 76 76 81 81 82 74 77 83 80 74 91 85 77 61 71 71 65 61 64 57 65
148 147 147 149 147 140 137 142 143 132 123 123 128 121 107 91 91 52 50 41 44 59 74 83 92 90 92 76 65 78 74 44 63 102 114 98 43 42 71 76 72 64 56
156 155 156 153 150 149 152 147 142 137 131 126 92 77 73 67 82 82 66 41 49 53 52 66 92 106 102 95 78 70 76 41 8 59 86 104 116 94 40 70 79 75 61
154 153 159 153 156 153 152 151 146 136 125 124 116 125 137 113 107 109 116 97 92 75 59 46 65 94 95 105 107 92 78 71 16 11 37 75 115 127 93 31 59 77 68
153 156 160 155 155 149 147 147 142 129 126 133 132 155 126 112 105 102 111 88 89 91 90 58 57 71 91 91 77 79 57 63 61 38 36 40 42 58 115 112 74 65 65
155 156 152 147 148 139 139 144 137 135 140 152 165 172 142 128 124 130 119 93 99 93 86 76 60 66 69 78 76 81 68 55 52 49 56 62 58 43 77 110 121 104 82
153 151 147 150 150 146 151 155 151 152 162 176 182 173 166 165 159 145 135 133 118 116 111 84 67 79 79 83 75 66 85 81 64 64 60 54 53 47 67 96 108 108 129
149 152 151 151 151 153 159 162 166 167 171 178 179 173 167 171 160 157 157 157 148 137 130 109 89 92 98 91 82 64 76 86 77 75 73 70 55 54 64 84 98 86 65
148 150 150 152 154 160 163 168 168 165 171 174 179 188 170 156 155 161 147 133 127 135 130 131 122 109 108 102 90 67 60 66 68 70 75 81 71 65 61 68 95 112 101
146 143 147 153 158 158 164 170 166 164 167 170 179 163 153 164 160 158 151 129 127 124 135 136 134 137 123 113 100 81 66 77 81 87 82 73 68 58 52 51 37 70 126
139 141 145 150 153 158 166 168 164 160 163 169 162 151 154 159 151 151 152 151 150 148 150 146 140 140 140 130 116 133 134 107 115 112 100 85 75 68 58 58 41 38 84
128 135 141 145 153 166 171 170 170 166 165 167 161 159 164 170 164 164 169 169 160 163 168 154 148 153 154 139 138 139 112 113 121 107 107 122 107 86 59 74 59 57 86
122 126 137 146 155 165 170 171 169 170 168 165 164 171 169 160 162 165 162 168 162 164 167 152 152 147 140 138 144 146 151 167 179 167 146 134 125 137 123 122 109 85 88
132 130 136 147 155 167 172 172 168 166 165 161 162 167 161 156 156 145 148 163 172 158 149 143 149 148 145 128 130 141 160 187 177 122 85 68 80 89 85 98 89 98 87
140 145 154 161 164 171 173 171 168 166 163 157 157 160 155 149 141 137 141 136 145 137 134 130 122 119 116 109 104 123 159 131 119 113 108 97 89 80 78 79 63 72 87
156 155 163 164 168 176 183 180 176 171 163 161 158 155 152 145 142 149 146 139 120 109 111 118 117 114 112 103 91 56 316 174 156 139 133 137 127 117 106 90 81 105 152
147 165 170 161 176 182 185 178 173 164 157 157 153 153 154 149 146 146 141 145 142 131 136 143 135 134 118 114 93 48 12 334 273 128 121 203 162 157 165 171 172 15 287
154 168 176 162 185 180 166 165 158 159 160 158 154 153 151 148 149 151 155 157 154 158 170 159 151 139 134 132 115 64 291 285 238 182 181 170 122 82 89 161 137 222 290
122 114 36 152 163 163 155 155 158 155 156 160 161 157 156 154 153 156 163 167 171 177 180 165 158 154 156 154 141 118 232 282 296 44 57 90 95 64 38 70 166 240 283
76 75 53 72 118 120 143 152 159 160 158 158 161 158 162 162 164 168 170 176 178 178 176 173 176 169 158 165 165 166 191 228 295 61 73 93 107 82 44 32 214 231 253
67 62 64 59 93 109 134 155 157 171 160 147 149 160 156 163 167 168 170 171 169 171 182 180 179 170 158 168 172 170 191 223 218 214 151 106 127 180 304 267 222 237 259
95 84 72 59 46 107 134 145 154 148 143 147 152 159 161 164 162 159 168 169 163 171 183 177 176 180 161 163 178 183 210 284 275 218 113 120 136 44 338 321 263 280 310
114 101 85 88 40 86 108 133 123 126 136 147 155 160 159 151 145 148 156 157 154 166 187 185 187 185 159 165 174 190 208 246 302 15 82 118 141 129 76 266 274 303 303
132 123 121 113 58 45 88 94 101 125 148 150 155 155 151 144 143 147 153 158 173 183 194 201 201 193 172 157 164 182 196 196 182 263 62 126 200 272 238 267 267 258 248
154 136 143 156 167 33 107 102 116 152 165 160 155 161 160 157 155 150 160 172 178 182 184 197 195 190 192 182 161 162 176 180 176 144 138 167 207 238 250 250 251 249 252
170 163 168 197 212 211 167 141 152 187 180 169 166 162 160 161 163 160 146 106 146 149 157 170 175 177 168 154 149 148 148 149 149 135 169 220 230 236 239 241 248 246 244
Height
1523 1525 1527 1529 1530 1532 1533 1535 1536 1537 1538 1539 1540 1541 1542 1542 1543 1543 1543 1544 1544 1544 1545 1545 1545 1545 1546 1546 1547 1547 1548 1549 1549 1550 1550 1551 1551 1551 1551 1551 1551 1550 1549
1522 1524 1526 1528 1530 1531 1533 1534 1536 1537 1538 1539 1540 1541 1542 1543 1543 1544 1544 1544 1545 1545 1546 1546 1546 1546 1547 1547 1548 1549 1549 1549 1550 1551 1551 1552 1554 1553 1553 1552 1552 1552 1551
1520 1522 1525 1527 1529 1531 1533 1534 1536 1537 1537 1539 1540 1541 1542 1543 1544 1544 1544 1545 1545 1546 1546 1547 1547 1548 1548 1548 1549 1549 1550 1550 1551 1551 1552 1552 1553 1553 1554 1553 1554 1553 1552
1519 1521 1524 1526 1528 1530 1532 1534 1535 1537 1537 1538 1539 1540 1542 1543 1544 1544 1545 1546 1546 1546 1547 1548 1548 1549 1549 1549 1550 1550 1550 1551 1551 1552 1552 1553 1553 1553 1554 1556 1555 1554 1554
1518 1520 1522 1525 1528 1530 1531 1533 1535 1536 1537 1538 1539 1540 1542 1543 1544 1544 1545 1546 1547 1547 1547 1548 1549 1550 1550 1550 1550 1550 1551 1551 1552 1552 1552 1553 1553 1554 1554 1555 1556 1556 1555
1517 1519 1522 1524 1527 1529 1531 1532 1534 1535 1536 1538 1539 1540 1541 1543 1544 1545 1545 1546 1547 1547 1548 1548 1549 1550 1550 1550 1551 1551 1551 1552 1552 1552 1553 1553 1553 1554 1554 1555 1555 1556 1556
1516 1518 1521 1523 1526 1528 1530 1531 1533 1534 1536 1537 1538 1540 1541 1542 1543 1544 1545 1546 1547 1547 1548 1548 1549 1550 1550 1551 1551 1552 1552 1552 1553 1553 1553 1554 1554 1554 1555 1555 1555 1556 1556
1515 1517 1520 1522 1524 1526 1529 1530 1532 1534 1535 1537 1538 1539 1540 1542 1543 1544 1545 1546 1547 1548 1548 1548 1549 1550 1550 1551 1552 1552 1553 1553 1553 1553 1554 1554 1554 1555 1555 1555 1556 1556 1556
1514 1516 1519 1521 1523 1525 1528 1530 1531 1533 1534 1536 1537 1538 1540 1541 1542 1544 1545 1546 1547 1547 1548 1548 1549 1550 1550 1551 1552 1552 1553 1553 1553 1554 1554 1554 1555 1555 1555 1555 1556 1556 1556
1513 1515 1518 1520 1522 1524 1527 1529 1530 1532 1533 1535 1536 1537 1539 1540 1541 1543 1544 1545 1546 1547 1547 1548 1549 1549 1550 1551 1552 1552 1553 1553 1554 1554 1554 1554 1555 1555 1555 1556 1556 1556 1556
1512 1515 1517 1519 1522 1524 1526 1528 1529 1531 1532 1534 1535 1536 1537 1539 1540 1541 1543 1544 1545 1546 1547 1548 1549 1550 1550 1551 1552 1552 1553 1554 1554 1554 1555 1555 1555 1555 1555 1555 1555 1555 1555
1512 1514 1517 1519 1521 1523 1525 1526 1528 1529 1531 1533 1534 1535 1537 1538 1539 1540 1542 1543 1544 1545 1546 1547 1548 1549 1550 1551 1551 1552 1553 1553 1554 1554 1555 1555 1555 1555 1555 1555 1555 1555 1555
1512 1514 1516 1518 1520 1522 1524 1525 1526 1528 1530 1531 1533 1534 1535 1537 1538 1539 1541 1542 1544 1545 1546 1547 1547 1548 1549 1550 1551 1552 1552 1553 1553 1554 1554 1554 1554 1554 1554 1554 1554 1554 1554
1511 1513 1515 1517 1519 1521 1522 1524 1525 1527 1528 1530 1531 1533 1534 1535 1537 1538 1539 1541 1542 1544 1545 1546 1547 1547 1548 1549 1550 1551 1551 1552 1552 1553 1553 1553 1553 1553 1553 1553 1553 1553 1553
1511 1512 1514 1516 1518 1519 1521 1522 1523 1525 1526 1528 1529 1531 1533 1534 1535 1536 1538 1539 1541 1542 1543 1544 1545 1546 1547 1548 1549 1549 1550 1551 1551 1552 1552 1552 1552 1552 1552 1552 1552 1552 1552
1510 1511 1513 1514 1516 1517 1519 1520 1521 1522 1524 1525 1527 1529 1531 1532 1533 1534 1536 1537 1539 1540 1541 1542 1543 1544 1545 1546 1547 1548 1549 1549 1550 1550 1550 1550 1551 1551 1550 1550 1550 1551 1550
1509 1510 1511 1513 1514 1515 1516 1518 1519 1520 1522 1523 1525 1527 1529 1530 1531 1533 1534 1535 1537 1538 1539 1540 1542 1542 1543 1545 1545 1546 1547 1547 1548 1548 1549 1549 1549 1549 1549 1548 1549 1549 1549
1507 1509 1510 1511 1512 1513 1514 1516 1517 1518 1520 1521 1523 1525 1526 1528 1529 1531 1532 1533 1535 1536 1537 1539 1540 1541 1542 1543 1543 1544 1545 1545 1546 1546 1547 1547 1547 1547 1547 1546 1546 1546 1546
1505 1507 1508 1509 1510 1511 1512 1514 1515 1516 1518 1519 1521 1522 1524 1525 1527 1529 1530 1532 1533 1534 1536 1537 1538 1539 1540 1541 1542 1542 1543 1543 1544 1544 1545 1545 1545 1545 1544 1544 1544 1543 1543
1504 1505 1506 1507 1507 1508 1510 1511 1513 1514 1515 1517 1518 1520 1522 1523 1525 1526 1528 1530 1531 1532 1534 1535 1536 1537 1538 1539 1539 1540 1541 1541 1542 1542 1542 1543 1543 1542 1542 1541 1541 1540 1540
1502 1503 1504 1505 1506 1507 1508 1509 1510 1512 1513 1515 1517 1518 1520 1521 1522 1524 1526 1527 1529 1530 1532 1533 1534 1535 1536 1536 1537 1538 1538 1539 1539 1539 1540 1540 1540 1540 1539 1539 1538 1538 1537
1500 1501 1502 1503 1504 1505 1506 1507 1508 1510 1511 1513 1514 1516 1517 1519 1520 1522 1523 1525 1526 1528 1529 1530 1531 1532 1533 1534 1534 1535 1536 1536 1536 1536 1537 1537 1537 1537 1536 1536 1535 1535 1534
1499 1500 1501 1502 1503 1503 1504 1505 1506 1507 1509 1510 1512 1514 1515 1517 1518 1519 1521 1522 1524 1525 1526 1527 1528 1529 1530 1530 1531 1532 1533 1533 1533 1533 1534 1534 1534 1533 1533 1533 1532 1531 1531
1497 1498 1499 1500 1501 1501 1502 1503 1504 1505 1507 1508 1510 1511 1513 1514 1515 1517 1518 1519 1521 1522 1523 1524 1525 1526 1526 1527 1528 1528 1529 1529 1530 1530 1530 1530 1530 1530 1529 1529 1528 1528 1527
1496 1496 1497 1498 1499 1499 1500 1501 1502 1503 1504 1506 1507 1509 1510 1511 1513 1514 1515 1516 1518 1519 1520 1521 1522 1522 1523 1523 1524 1525 1525 1526 1526 1526 1526 1526 1526 1525 1525 1525 1524 1524 1523
1493 1494 1495 1496 1497 1497 1498 1499 1500 1501 1502 1503 1505 1506 1508 1509 1510 1511 1513 1514 1515 1517 1518 1519 1519 1520 1521 1521 1521 1522 1522 1523 1523 1523 1522 1522 1522 1522 1521 1521 1520 1520 1519